Regional Weather Roundup
Issued by NWS Albany, NY

Home | Current Version | Previous Version | Text Only | Print | Product List | Glossary On
Versions: 1 2 3 4 5 6 7 8 9 10 11 12 13 14 15 16 17 18 19 20 21 22 23 24 25 26 27 28 29 30 31 32 33 34 35 36 37 38 39 40 41 42 43 44 45 46 47 48 49 50
000
ASUS41 KALY 310910
RWRALY

NEW YORK STATE HOURLY WEATHER ROUNDUP
NATIONAL WEATHER SERVICE ALBANY NY
400 AM EST SAT JAN 31 2015

NOTE: "FAIR" INDICATES FEW OR NO CLOUDS BELOW 12,000 FEET WITH NO
SIGNIFICANT WEATHER AND/OR NO OBSTRUCTIONS TO VISIBILITY.

NYZ032-033-038>043-046>054-057>066-NYZ062>081-311000-
EAST


CITY           SKY/WX    TMP DP  RH WIND       PRES   REMARKS
ALBANY         PTCLDY     3 -10  54 W9        30.12R WCI -12
GLENS FALLS    CLEAR      2 -10  57 N15       30.11R WCI -17
POUGHKEEPSIE   CLEAR     13  -9  37 NW18G29   30.07S WCI  -4
NEWBURGH       CLEAR     10  -4  52 NW13G25   30.06R WCI  -5
MONTGOMERY     CLEAR     11  -7  44 NW23G35   30.09R WCI  -9
WHITE PLAINS   FAIR      13  -4  46 NW24G38   29.99R WCI  -7
ISLIP          CLEAR     16  -1  47 NW24G41   29.95R WCI  -2
NEW YORK CITY  PTCLDY    17   5  59 NW21G31   30.06S WCI   0
CENTRAL PARK   CLEAR     16   1  51 NW14G30   30.09S WCI   2
$$

NYZ005>009-017-018-044>046-055-056-311000-
CENTRAL


CITY           SKY/WX    TMP DP  RH WIND       PRES   REMARKS
FULTON         PTCLDY     5  -4  66 NW13      30.29S WCI -12
SYRACUSE       FLURRIES   0  -3  87 N5        30.29S WCI -10
ROME           PTCLDY    -3 -11  68 NW8       30.28R WCI -18
ELMIRA         MOCLDY     7  -2  66 VRB3      30.26S
BINGHAMTON     MIX PCPN   5  -2  72 NW17G31   30.09S WCI -14
MONTICELLO     CLEAR      3  -2  78 NW17G28   30.02S WCI -17
$$

NYZ026>034-041>043-311000-
NORTH


CITY           SKY/WX    TMP DP  RH WIND       PRES   REMARKS
WATERTOWN      PTCLDY   -17 -23  73 CALM      30.32S
FORT DRUM      NOT AVBL
MASSENA        PTCLDY    -6 -15  65 W8        30.30R WCI -21
SARANAC LAKE   CLOUDY   -10 -15  78 W7        30.05R HAZE    WCI -25
PLATTSBURGH    CLEAR     -2 -13  59 NW5       30.16S WCI -12
$$

NYZ001>004-010>016-019>021-311000-
WEST


CITY           SKY/WX    TMP DP  RH WIND       PRES   REMARKS
NIAGARA FALLS  CLOUDY     4   0  83 CALM      30.33F FOG
BUFFALO        FLURRIES   4   0  83 S3        30.32S
DUNKIRK        LGT SNOW  11   7  84 CALM      30.33F FOG
JAMESTOWN      CLOUDY     9   3  78 W5        30.22F WCI   0
WELLSVILLE     CLOUDY     4  -1  80 NW10      30.17F WCI -11
ROCHESTER      CLOUDY     1  -3  83 W6        30.31F WCI -10
PENN YAN       CLEAR      5  -3  69 W5        30.26F WCI  -4
$$

             KEY
       WCI = WIND CHILL INDEX
       VSB = VISIBILITY
       HX  = HEAT INDEX
$$


USA.gov is the U.S. government's official web portal to all federal, state and local government web resources and services.